Regional Weather Roundup
Issued by NWS

Home | Current Version | Previous Version | Graphics & Text | Print | Product List | Glossary On
Versions: 1 2 3 4 5 6 7 8 9 10 11 12 13 14 15 16 17 18 19 20 21 22 23 24 25 26 27 28 29 30 31 32 33 34 35 36 37 38 39 40 41 42 43 44 45 46 47 48 49 50
000
ASUS43 KMPX 302301
RWRMN
WEATHER ROUNDUP FOR MINNESOTA
NATIONAL WEATHER SERVICE TWIN CITIES/CHANHASSEN MN
600 PM CDT WED JUL 30 2014


NOTE: "FAIR" INDICATES FEW OR NO CLOUDS BELOW 12,000 FEET WITH NO
SIGNIFICANT WEATHER AND/OR OBSTRUCTIONS TO VISIBILITY. N/A MEANS
CURRENT SKY AND/OR WEATHER CONDITIONS ARE NOT AVAILABLE.

MNZ060>063-068>070-310000-
   Twin Cities Metro

CITY           SKY/WX    TMP DP  RH WIND       PRES   REMARKS
TWIN CITIES    MOSUNNY   80  52  37 NW13      30.03F
ST PAUL        SUNNY     79  53  40 NW14G21   30.03S
CRYSTAL        SUNNY     80  53  39 W12       30.02F
BLAINE         MOSUNNY   81  54  39 W12G17    30.03S
LAKEVILLE      SUNNY     75  57  53 W9        30.04F
EDEN PRAIRIE   SUNNY     80  54  40 NW12      30.03F
SOUTH ST PAUL  SUNNY     80  51  36 W9        30.03S
LAKE ELMO      FAIR      77  57  50 NW6       30.04S
$$
MNZ001>005-007-008-013>017-022>024-027-028-310000-
   Northwest Minnesota

CITY           SKY/WX    TMP DP  RH WIND       PRES   REMARKS
BEMIDJI        MOSUNNY   74  54  48 NW13      30.06S
HALLOCK        SUNNY     81  55  41 NW7       30.04F
ROSEAU         SUNNY     79  61  53 NW8G17    30.03S
WARROAD        SUNNY     79  61  53 W9        30.02F
THIEF RVR FALL MOSUNNY   75  55  50 W9        30.06F
CROOKSTON      SUNNY     79  57  47 N7        30.06F
FOSSTON        SUNNY     75  54  46 W6        30.08S
DETROIT LAKES  SUNNY     77  52  41 NW7       30.09F
MOORHEAD       SUNNY     79  54  41 NW6       30.07F
PARK RAPIDS    SUNNY     77  52  41 NW15      30.06F
$$
MNZ006-009>011-018-025>026-310000-
   North Central Minnesota

CITY           SKY/WX    TMP DP  RH WIND       PRES   REMARKS
BAUDETTE       SUNNY     77  57  50 NW8       30.02F
FLAG ISLAND    SUNNY     77  57  50 NW8       29.99F
INTL FALLS     PTSUNNY   76  55  48 NW13G21   29.99S
WASKISH        SUNNY     75  59  57 W5        30.03S
BIG FORK       SUNNY     77  55  47 NW5       30.02S
LONGVILLE      SUNNY     75  59  57 NW7       30.05S
GRAND RAPIDS   MOSUNNY   75  55  50 NW10      30.03S
CRANE LAKE     MOSUNNY   73  57  56 N7        29.98F
ORR            MOSUNNY   75  54  46 NW10G18   29.97S
COOK           MOSUNNY   75  55  50 W15       29.99S
$$
MNZ012-019>021-037-310000-
   Northeast Minnesota

CITY           SKY/WX    TMP DP  RH WIND       PRES   REMARKS
DULUTH         MOSUNNY   77  57  50 NW14      29.98S
ELY            SUNNY     70  63  78 CALM      29.97F
HIBBING        PTSUNNY   77  54  44 NW14G22   30.00S
EVELETH        PTSUNNY   77  55  47 NW14      30.00S
DULUTH HARBOR  SUNNY     79  61  53 W16G22    29.95F
TWO HARBORS    MOSUNNY   72  59  64 N5        29.94S
SILVER BAY     MOSUNNY   72  63  73 NW6       29.93S
GRAND MARAIS     N/A     53  48  83 NE8       29.93S
G MARAIS ARPRT MOSUNNY   70  48  46 NW9       29.98R
$$
MNZ029>031-032-039>041-046>048-054>057-064-310000-
   West Central Minnesota

CITY           SKY/WX    TMP DP  RH WIND       PRES   REMARKS
FERGUS FALLS   SUNNY     79  46  31 N6        30.06F
WHEATON        SUNNY     75  55  50 CALM      30.10S
MORRIS         SUNNY     79  55  44 NW5       30.08S
ALEXANDRIA     MOSUNNY   77  54  44 NW14      30.10S
ELBOW LAKE     FAIR      75  55  49 NW8       30.08F
WADENA         SUNNY     75  54  46 W8        30.07F
GLENWOOD       MOSUNNY   79  55  44 NW10      30.09S
APPLETON       SUNNY     81  52  36 NW8       30.08S
BENSON         MOSUNNY   79  54  41 NW8       30.08F
ORTONVILLE     SUNNY     79  52  38 NW5       30.09S
MADISON        SUNNY     79  55  44 NW7       30.09S
WILLMAR        FAIR      79  54  41 NW9       30.09F
$$
MNZ033>034-036-042>043-049>051-058-059-310000-
   Central Minnesota

CITY           SKY/WX    TMP DP  RH WIND       PRES   REMARKS
ST CLOUD       MOSUNNY   80  53  39 NW9       30.04F
SAUK CENTRE    FAIR      77  53  44 NW10      30.08S
PAYNESVILLE    MOSUNNY   73  53  49 W8        30.08S
AITKIN         SUNNY     79  57  47 NW7       30.03S
PINE RIVER     SUNNY     75  57  53 NW8       30.08S
BRAINERD       SUNNY     76  55  48 NW9       30.05S
STAPLES        SUNNY     77  48  36 NW12      30.06F
LONG PRAIRIE   FAIR      77  54  44 W8        30.08S
LITTLE FALLS   SUNNY     77  50  38 W9        30.06S
LITCHFIELD     MOSUNNY   79  57  47 NW7       30.07F
BUFFALO        SUNNY     78  52  40 W10       30.05F
MAPLE LAKE     SUNNY     78  58  48 W7        30.06S
$$
MNZ037-044-045-052-053-310000-
   East Central Minnesota

CITY           SKY/WX    TMP DP  RH WIND       PRES   REMARKS
PRINCETON      MOSUNNY   79  55  44 W9        30.04S
MORA           SUNNY     73  55  53 NW10      30.04F
CAMBRIDGE      SUNNY     81  61  50 W10       30.01F
RUSH CITY      SUNNY     76  58  52 W5        30.02F
MOOSE LAKE     SUNNY     77  55  47 NW8       29.99S
HINCKLEY       FAIR      77  59  53 W6        30.01F
CLOQUET        MOSUNNY   75  54  46 NW12G17   30.00S
MCGREGOR       SUNNY     77  57  50 NW10      30.03S
$$
MNZ071>073-080-081-089-090-097-098-310000-
   Southwest Minnesota

CITY           SKY/WX    TMP DP  RH WIND       PRES   REMARKS
MONTEVIDEO     MOSUNNY   81  55  41 N8        30.09F
GRANITE FALLS  SUNNY     77  55  45 W6        30.10F
CANBY          MOSUNNY   80  52  38 NW6       30.10F
MARSHALL       SUNNY     77  54  44 N8        30.09F
REDWOOD FALLS  MOSUNNY   78  54  43 VRB5      30.08F
OLIVIA         SUNNY     77  54  44 W8        30.08S
PIPESTONE      MOSUNNY   75  52  43 NW6       30.12F
WINDOM         MOSUNNY   75  54  46 W7        30.11F
WORTHINGTON    MOSUNNY   75  54  46 N5        30.13F
JACKSON        SUNNY     75  52  43 NW5       30.12S
TRACY          SUNNY     77  54  45 NW5       30.11S
SLAYTON        SUNNY     75  50  41 CALM      30.12F
$$
MNZ065>067-074>077-082>085-091>093-310000-
   South Central Minnesota

CITY           SKY/WX    TMP DP  RH WIND       PRES   REMARKS
MANKATO        PTSUNNY   75  55  50 W9        30.07S
NEW ULM        SUNNY     77  55  47 NW9       30.08S
ST JAMES       SUNNY     79  54  41 W9        30.09F
FAIRMONT       MOSUNNY   79  46  31 NW9       30.09S
GLENCOE        SUNNY     78  55  44 W7        30.06F
FARIBAULT      SUNNY     79  52  38 W6        30.06S
OWATONNA       MOSUNNY   79  54  41 W10       30.06F
WASECA         SUNNY     77  54  44 W7        30.09S
ALBERT LEA     SUNNY     77  57  50 NW6       30.07S
$$
MNZ078>079-086>088-094>096-310000-
   Southeast Minnesota

CITY           SKY/WX    TMP DP  RH WIND       PRES   REMARKS
ROCHESTER      PTSUNNY   77  57  50 NW6       30.07S
RED WING       SUNNY     79  55  44 NW7       30.01F
STANTON        SUNNY     78  55  43 NW12      30.03S
DODGE CENTER   SUNNY     77  57  50 NW10      30.06F
WINONA         SUNNY     79  59  50 W3        30.03S
AUSTIN         MOSUNNY   77  55  47 W10       30.06S
PRESTON        SUNNY     74  64  69 NW5       30.07S
$$
ABBREVIATIONS USED IN REMARKS
   TC - TEMPERATURES IN CELSIUS
  WCI - WIND CHILL INDEX
   HX - HEAT INDEX
  VSB - VISIBILITY
$$



USA.gov is the U.S. government's official web portal to all federal, state and local government web resources and services.